Regional Weather Roundup
Issued by NWS

Home | Current Version | Previous Version | Graphics & Text | Print | Product List | Glossary On
Versions: 1 2 3 4 5 6 7 8 9 10 11 12 13 14 15 16 17 18 19 20 21 22 23 24 25 26 27 28 29 30 31 32 33 34 35 36 37 38 39 40 41 42 43 44 45 46 47 48 49 50
136
ASUS45 KBOU 230407
RWRCO

WEATHER ROUNDUP FOR COLORADO
NATIONAL WEATHER SERVICE DENVER/BOULDER CO
1000 PM MDT SAT APR 22 2017

NOTE: "FAIR" INDICATES FEW OR NO CLOUDS BELOW 12000 FEET WITH NO
SIGNIFICANT WEATHER AND/OR OBSTRUCTIONS TO VISIBILITY.

COZ001>005-013-030-031-230500-
...NORTHWEST COLORADO...

CITY           SKY/WX    TMP DP  RH WIND       PRES   REMARKS
CRAIG          FAIR      38  28  67 CALM      30.13R
HAYDEN         FAIR      41  19  42 SW8       30.15R
MEEKER         FAIR      39  29  67 CALM      30.14R
MOUNT WERNER   NOT AVBL
STEAMBOAT SPGS FAIR      39  26  58 CALM      30.15R
WALDEN           N/A     32  23  69 SE6       30.21R WCI  26
$$

COZ006>008-011-230500-
...WEST CENTRAL VALLEYS...

CITY           SKY/WX    TMP DP  RH WIND       PRES   REMARKS
GRAND JUNCTION FAIR      50  17  27 CALM      30.09R
MONTROSE       FAIR      47  18  31 SE8       30.16R
EAGLE          FAIR      42  25  50 E5        30.19R
RIFLE          FAIR      46  26  45 CALM      30.13R
DELTA          FAIR      51  21  30 N7        30.12R
NUCLA          FAIR      48  18  29 E6        30.17R
$$

COZ017>023-064>068-230500-
...SOUTHWEST COLORADO...

CITY           SKY/WX    TMP DP  RH WIND       PRES   REMARKS
DURANGO        FAIR      44  21  40 N13       30.19R
CORTEZ         FAIR      43  24  47 E9        30.17R
PAGOSA SPRINGS FAIR      42  17  35 NE5       30.25R
TELLURIDE      FAIR      43  18  37 CALM      30.29R
WOLF CREEK PAS FAIR      30  14  51 S18G25    30.42R WCI  18
$$

COZ009-010-012-014-032>034-037-058>063-230500-
...CENTRAL COLORADO...

CITY           SKY/WX    TMP DP  RH WIND       PRES   REMARKS
ASPEN          FAIR      38  20  48 S3        30.19R
BUENA VISTA    FAIR      37  25  62 E5        30.28S
COPPER MTN     FAIR      32  12  43 S15       30.33S WCI  22
BERTHOUD PASS  FAIR      21  10  63 S9        30.33S WCI  11
COTTONWOOD PAS FAIR      34  23  64 CALM      30.31S
GUNNISON       FAIR      41  19  41 CALM      30.22R
KREMMLING      FAIR      41  28  60 CALM      30.20R
LEADVILLE      FAIR      29  20  69 CALM      30.28R
MONARCH PASS   FAIR      25  21  86 CALM      30.46S
SALIDA         FAIR      42  29  60 SE12G17   30.35R
SUNLIGHT       FAIR      28  21  74 SW6       30.33R WCI  22
WILKERSON PASS FAIR      28  19  69 SW3       30.37S
$$

COZ069>075-230500-
...SAN LUIS VALLEY/SANGRE DE CRISTO MOUNTAINS...

CITY           SKY/WX    TMP DP  RH WIND       PRES   REMARKS
ALAMOSA        FAIR      40  27  59 E13       30.23R
LA VETA PASS   FAIR      28  25  86 CALM      30.45R
SAGUACHE       FAIR      34  18  51 NE7       30.25R WCI  28
$$

COZ035-036-038>040-230500-
...NORTHERN COLORADO FRONT RANGE...

CITY           SKY/WX    TMP DP  RH WIND       PRES   REMARKS
DENVER INTL AP FAIR      39  31  72 S13       30.19F
DMNS CITY PARK   N/A     49  31  50 S3G13     30.19F
AURORA         CLEAR     45  32  61 S14       30.21S
FRONT RANGE AP NOT AVBL
ERIE MUNI ARPT FAIR      47  30  50 SE7       30.18F
BOULDER MUN AP FAIR      46  32  57 CALM      30.18F
CENTENNIAL     FAIR      43  33  68 S13       30.21S
BROOMFIELD     CLEAR     48  28  46 S5        30.20S
FORT COLLINS   FAIR      45  34  65 SE7       30.19S
LONGMONT       FAIR      43  34  71 NW6       30.21S HAZE
$$

COZ041-046-047-076>085-087-088-230500-
...PIKES PEAK/PALMER DIVIDE AND SOUTHERN FOOTHILLS...

CITY           SKY/WX    TMP DP  RH WIND       PRES   REMARKS
COLO. SPRINGS  FAIR      42  33  70 S10       30.28R
A. F. ACADEMY  FAIR      40  32  71 S9        30.27R
SCHRIEVER AFB  FAIR      38  32  81 S13       30.29R
ELLICOTT       FAIR       1  32 100 S6        30.28R WCI -10
FALCON         FAIR      37  33  85 S9G16     30.30R
FORT CARSON    FAIR      43  34  71 S8        30.27R
LIMON          FAIR      40  34  79 S8        30.26R
MONUMENT HILL  FAIR      34  32  93 S14       30.27S WCI  24
TRINIDAD       FAIR      39  32  76 SW6       30.30R
$$

COZ042>045-048>051-090-091-230500-
...NORTHEAST COLORADO...

CITY           SKY/WX    TMP DP  RH WIND       PRES   REMARKS
GREELEY ARPT   NOT AVBL
AKRON          FAIR      43  30  60 S9        30.22F
BURLINGTON     NOT AVBL
WRAY           NOT AVBL
STERLING       FAIR      41  34  75 S3        30.20S
HOLYOKE        FAIR      43  36  75 S7        30.23S
FORT MORGAN    FAIR      44  31  60 SE9       30.21S
$$

COZ086-089-092>099-230500-
...SOUTHEAST COLORADO...

CITY           SKY/WX    TMP DP  RH WIND       PRES   REMARKS
PUEBLO         FAIR      48  35  60 SE5       30.26S
LA JUNTA       FAIR      48  35  60 S6        30.27R
LAMAR          FAIR      44  35  70 S12       30.26R
SPRINGFIELD      N/A     33  28  81 CALM      30.29R
$$




USA.gov is the U.S. government's official web portal to all federal, state and local government web resources and services.